Location: ??????
(55.6361°N, 38.0803°E)
Time: 01:27:54
(UTC+00:00)

Sich 1 Rocket - Pass Details

Date: 30 March 2020
Orbit: 617 x 652 km, 82.5° (Epoch: 26 May)

Event Time Altitude Azimuth Distance (km) Brightness Sun altitude
Rises 02:06:43 0° 344° (NNW) 2,922 7.1 -8.6°
Reaches altitude 10° 02:09:02 10° 339° (NNW) 2,006 6.2 -8.3°
Maximum altitude 02:13:16 46° 266° (W) 837 3.8 -7.7°
Drops below altitude 10° 02:17:28 10° 193° (SSW) 1,981 5.9 -7.1°
Sets 02:19:44 0° 188° (S) 2,881 6.7 -6.8°
